Regional Weather Roundup
Issued by NWS

Home | Current Version | Previous Version | Text Only | Print | Product List | Glossary Off
Versions: 1 2 3 4 5 6 7 8 9 10 11 12 13 14 15 16 17 18 19 20 21 22 23 24 25 26 27 28 29 30 31 32 33 34 35 36 37 38 39 40 41 42 43 44 45 46 47 48 49 50

235
ASUS42 KTBW 110016
RWRFL
FLORIDA REGIONAL WEATHER ROUNDUP
NATIONAL WEATHER SERVICE TAMPA BAY RUSKIN FL
700 PM EST WED FEB 10 2016

NOTE: "FAIR" INDICATES FEW OR NO CLOUDS BELOW 12,000 FEET WITH NO
SIGNIFICANT WEATHER AND/OR OBSTRUCTIONS TO VISIBILITY.


FLZ001>010-012>015-112-114-115-110100-
PANHANDLE FLORIDA

CITY           SKY/WX    TMP DP  RH WIND       PRES   REMARKS
PENSACOLA      CLEAR     48  26  42 SW10      30.26R WCI  43
PENSACOLA NAS  CLEAR     46  27  47 W6        30.26S WCI  43
MILTON NAS     CLEAR     42  21  43 W3        30.24
CRESTVIEW      CLEAR     43  18  36 CALM      30.26S
DUKE FIELD     CLEAR     46  17  31 CALM      30.24S
VALPARAISO     CLEAR     47  17  31 CALM      30.24S
MARY ESTHER    CLEAR     49  14  24 W5        30.25R
TRI COUNTY     FAIR      41  25  53 SW3       30.24S
PANAMA CITY    FAIR      44  25  47 SW6       30.24S WCI  41
TYNDALL AFB    CLEAR     45  26  48 NW7       30.26R WCI  41
APALACHICOLA   CLEAR     45  26  47 NW8       30.26R WCI  41

STATION/POSITION SKY/WX   TEMP    WIND        PRES    WAVE   SWELL
                          AIR SEA DIR/SP/G            HT/PER HT/PER
                          (F)     (DEG/KT/KT) (MB)    (FT/S) (FT/S)
30.1N   87.6W              53 65  270/ 12/ 17 1024.6F   2/ 3
28.8N   86.0W              54 69  300/ 16/ 19 1025.4R   5/ 5   2/ 8
PANAMA CITY BEAC           49 57              1024.6
CAPE SAN BLAS    NOT AVBL
TOWER C          NOT AVBL
28.5N   84.5W              55 67  300/ 17/ 21 1024.4R   7/ 8   3/ 8

$$
FLZ011-016>038-118-127-128-134-139-239-110100-
NORTH FLORIDA

CITY           SKY/WX    TMP DP  RH WIND       PRES   REMARKS
MARIANNA       CLEAR     42  17  36 SW6       30.22F WCI  38
TALLAHASSEE    CLEAR     46  14  27 W5        30.24R WCI  44
PERRY          CLEAR     42  21  43 W3        30.25R
LIVE OAK         N/A     45  21  39 W3        30.25R
CROSS CITY       N/A     43  24  47 CALM      30.24R
LAKE CITY      FAIR      41  18  38 W6        30.21S WCI  37
GAINESVILLE    CLEAR     44  19  36 W7        30.22R WCI  40
WILLISTON      FAIR      46  21  36 W6        30.25R WCI  43
KEYSTONE HEIGH FAIR      43  14  31 NW7       30.22R WCI  39
PALATKA        FAIR      45  19  36 W3        30.21R
MAYPORT NAS    CLEAR     47  18  31 W9G16     30.20R WCI  43
JACKSONVILLE   CLEAR     42  17  36 W6        30.20R WCI  38
JAX NAS        CLEAR     48  12  23 W8        30.21R WCI  44
JAX CRAIG      CLEAR     47  13  25 W9        30.20R WCI  43
JAX CECIL      CLEAR     43  16  33 W7        30.21  WCI  39
FERNANDINA BEA FAIR      45  16  31 W7        30.18R WCI  41
ST AUGUSTINE   CLEAR     47  15  27 NW6       30.21R WCI  44
PALM COAST     FAIR      47  19  32 NW6       30.20R WCI  44

STATION/POSITION SKY/WX   TEMP    WIND        PRES    WAVE   SWELL
                          AIR SEA DIR/SP/G            HT/PER HT/PER
                          (F)     (DEG/KT/KT) (MB)    (FT/S) (FT/S)
SHELL POINT                50     290/  7/ 10 1022.2
KEATON BEACH               49     300/ 11/ 12 1023.7R
CEDAR KEY                  48     310/  9/ 13 1024.4R
FERNANDINA                 47 53              1021.9
MAYPORT                    48 55              1021.6
31.4N   80.9W              44 53  280/ 21/ 27 1021.5R   4/ 5
ST AUGUSTINE               47 56  300/  7/  9 1023.4R

$$
FLZ040-043>046-052-053-057-058-063-144-110100-
INTERIOR CENTRAL FLORIDA

CITY           SKY/WX    TMP DP  RH WIND       PRES   REMARKS
OCALA          CLEAR     45  18  33 W7        30.23R WCI  41
THE VILLAGES     N/A     45  25  45 W8        30.14R WCI  40
LEESBURG       CLEAR     47  27  45 W16       30.24R WCI  40
SANFORD        CLEAR     48  22  35 W14       30.21R WCI  42
ORLANDO EXEC   CLEAR     50  23  34 W17G23    30.22R WCI  44
ORLANDO INTL   CLEAR     49  22  34 W8        30.23R
KISSIMMEE      CLEAR     50  27  40 W12       30.24R
WINTER HAVEN   CLEAR     49  31  49 W10       30.26R WCI  45
LAKELAND       CLEAR     48  30  49 NW8       30.26R WCI  45
BARTOW         FAIR      48  28  46 W14       30.26R WCI  43
OKEECHOBEE     CLEAR     54  39  58 NW9       30.24R

$$
FLZ041-047-054-059-064-141-147-110100-
EAST CENTRAL FLORIDA

CITY           SKY/WX    TMP DP  RH WIND       PRES   REMARKS
ORMOND BEACH   CLEAR     48  16  27 W6        30.19R
DAYTONA BEACH  PTCLDY    48  18  30 W12       30.20R WCI  43
DELAND           N/A     48  21  34 W10       30.22R WCI  44
NEW SMYRNA BEA CLEAR     50  23  34 W14       30.17R WCI  45
JFK SPACE CTR  CLEAR     50  21  32 W15G23    30.19R WCI  45
TITUSVILLE     CLEAR     50  18  27 W14       30.20S WCI  45
CAPE CANAVERAL CLEAR     52  25  35 W10       30.19R
PATRICK AFB    CLEAR     53  25  33 W16       30.20R
MELBOURNE      CLEAR     50  28  42 W10       30.21R
VERO BEACH     CLEAR     54  37  52 W12       30.21R
FT PIERCE      CLEAR     54  36  50 W14G22    30.21R
STUART           N/A     59  36  41 W8        30.23R

STATION/POSITION SKY/WX   TEMP    WIND        PRES    WAVE   SWELL
                          AIR SEA DIR/SP/G            HT/PER HT/PER
                          (F)     (DEG/KT/KT) (MB)    (FT/S) (FT/S)
28.5N   80.2W              58 70  280/ 21/ 27 1021.4R
28.9N   78.5W              60 72              1020.2R
TRIDENT PIER               55 63              1021.9
28.4N   80.5W                 63                N/A     2/14   2/14

$$
FLZ050-056-061-142-242-148-248-149-249-151-251-155-255-
160-260-110100-
WEST CENTRAL FLORIDA

CITY           SKY/WX    TMP DP  RH WIND       PRES   REMARKS
CRYSTAL RIVER  FAIR      45  32  61 W6        30.25S WCI  41
INVERNESS      FAIR      43  34  70 CALM      30.26R
BROOKSVILLE    CLEAR     46  31  55 W8        30.26R WCI  42
ZEPHYRHILLS    FAIR      46  32  56 W6        30.26R WCI  43
CLEARWATER AIR FAIR      50  36  57 NW9       30.26S
ST PETE CLEARW CLEAR     50  36  58 NW13      30.26S
TAMPA INTL     PTCLDY    50  35  56 NW9       30.27R
TAMPA EXEC     CLEAR     52  34  50 NW7       30.27R
PLANT CITY     CLEAR     50  34  53 NW5       30.27R
MACDILL AFB    CLEAR     50  39  65 N8G17     30.25S
PETER O KNIGHT CLEAR     52  37  58 NW7       30.27R
ST PETERSBURG  CLEAR     52  38  58 NW7       30.25R
SARASOTA       CLEAR     51  38  60 NW9       30.26R
VENICE         MOCLDY    54  41  62 NW10G20   30.28R

STATION/POSITION SKY/WX   TEMP    WIND        PRES    WAVE   SWELL
                          AIR SEA DIR/SP/G            HT/PER HT/PER
                          (F)     (DEG/KT/KT) (MB)    (FT/S) (FT/S)
CEDAR KEY                  48     310/  9/ 13 1024.4R
28.5N   84.5W              55 67  300/ 17/ 21 1024.4R   7/ 8   3/ 8
27.3N   84.2W                 69                N/A     8/ 9   2/11
CLEARWATER BEACH           52 56              1024.5
MIDDLE TAMPA BAY           53                 1024.8
VENICE                     55 60  340/ 19/ 21 1024.8R

$$
FLZ066-069-070-075>078-162-262-165-265-110100-
SOUTHWEST FLORIDA AND KEYS

CITY           SKY/WX    TMP DP  RH WIND       PRES   REMARKS
PUNTA GORDA    PTCLDY    52  43  71 NW10      30.28R
FT MYERS       MOCLDY    54  44  69 NW12      30.26R
SOUTHWEST INTL MOCLDY    56  43  61 NW9       30.26R
NAPLES         CLOUDY    57  46  66 NW10      30.25R
MARCO ISLAND   CLEAR     57  43  58 NW7       30.24R
MARATHON       CLEAR     60  49  66 NW7       30.24R
KEY WEST NAS   MOCLDY    61  52  72 N7        30.25R
KEY WEST INTL  MOCLDY    62  54  74 N7        30.25R

STATION/POSITION SKY/WX   TEMP    WIND        PRES    WAVE   SWELL
                          AIR SEA DIR/SP/G            HT/PER HT/PER
                          (F)     (DEG/KT/KT) (MB)    (FT/S) (FT/S)
VENICE                     55 60  340/ 19/ 21 1024.8R
NAPLES                        64              1023.7
26.0N   85.6W              63 79  340/ 16/ 19 1025.5R   6/ 8   3/ 8
DRY TORTUGAS                                    N/A
SAND KEY                   62      30/  9/ 14 1024.4R
LONG KEY                   62 65  330/ 11/ 13 1024.5R
MOLASSES REEF              63 75  330/  8/ 10 1023.3R

$$
FLZ067-068-071>074-168-172>174-110100-
SOUTHEAST FLORIDA

CITY           SKY/WX    TMP DP  RH WIND       PRES   REMARKS
W PALM BEACH   MOCLDY    56  38  50 W6        30.23R
BOCA RATON     PTCLDY    59  43  55 NW6       30.21
FT LAUDER-EXEC PTCLDY    57  43  59 W6        30.21R
FT LAUDERDALE  MOCLDY    59  43  55 W8        30.20R
POMPANO BEACH  PTCLDY    59  46  62 W7        30.21R
PEMBROKE PINES CLEAR     59  43  55 SW6       30.23R
OPA LOCKA      CLEAR     59  43  55 W5        30.22R
MIAMI          MOCLDY    59  43  55 W3        30.22R
WEST KENDALL   CLEAR     55  44  66 CALM      30.22R
HOMESTEAD      PTCLDY    58  45  61 W2        30.22R

STATION/POSITION SKY/WX   TEMP    WIND        PRES    WAVE   SWELL
                          AIR SEA DIR/SP/G            HT/PER HT/PER
                          (F)     (DEG/KT/KT)C1F1M1C2F2M2C3F3C4F4M3C5F5M4C6F6M5C7F7M6C8!



USA.gov is the U.S. government's official web portal to all federal, state and local government web resources and services.